Вернуться в каталог

FENGYUN 1C DEB

АктивенSSO
NORAD 30043·DEBRIS·🇨🇳 China

Запущен May 10, 1999 с Taiyuan Satellite Launch Center

Loading…

Ближайшие Пролёты (ближайшие 24 часа)

TLE

СвежийSource: Space-Track

Эпоха: Sep 13, 2026, 05:05 UTC

1 30043U 99025NU  26256.21189948  .00001014  00000-0  30361-3 0  9990
2 30043  98.6295 354.5557 0279558  51.8848 310.7183 14.24755431 12456

Отслеживайте FENGYUN 1C DEB в реальном времени с AllMySat

Download on the App Store